Regional Weather Roundup
Issued by NWS

Home | Current Version | Previous Version | Graphics & Text | Print | Product List | Glossary On
Versions: 1 2 3 4 5 6 7 8 9 10 11 12 13 14 15 16 17 18 19 20 21 22 23 24 25 26 27 28 29 30 31 32 33 34 35 36 37 38 39 40 41 42 43 44 45 46 47 48 49 50
283
ASUS43 KMKX 280300
RWRWI

WISCONSIN REGIONAL WEATHER ROUNDUP
NATIONAL WEATHER SERVICE MILWAUKEE/SULLIVAN WI
1000 PM CDT THU APR 27 2017

NOTE: "FAIR" INDICATES FEW OR NO CLOUDS BELOW 12,000 FEET WITH NO
SIGNIFICANT WEATHER AND/OR OBSTRUCTIONS TO VISIBILITY.

WIZ001-002-006>008-014>016-023>028-280400-
NORTHWEST WISCONSIN

CITY           SKY/WX    TMP DP  RH WIND       PRES   REMARKS
SUPERIOR ARPT  CLOUDY    31  23  71 W9        29.68R WCI  23
ASHLAND        CLOUDY    29  24  82 SW12      29.67R WCI  19
HAYWARD        CLOUDY    29  22  75 W7        29.67R WCI  22
SIREN          CLOUDY    30  26  86 CALM      29.71R FOG
CUMBERLAND     CLOUDY    30  25  80 W12       29.70R WCI  21
RICE LAKE      CLOUDY    31  26  81 W7        29.72R WCI  24
CHETEK         NOT AVBL
LADYSMITH      CLOUDY    31  27  83 W13       29.71R WCI  21
EAU CLAIRE     CLOUDY    32  24  72 W8        29.74R WCI  25
MENOMONIE      CLOUDY    33  24  70 W12G17    29.74R WCI  24
NEW RICHMOND   CLOUDY    32  23  71 W10       29.74R WCI  23
OSCEOLA        CLOUDY    32  25  73 W8        29.76R WCI  25
$$

WIZ003>005-009-010-017-018-280400-
NORTH CENTRAL WISCONSIN

CITY           SKY/WX    TMP DP  RH WIND       PRES   REMARKS
MANITOWISH WTR NOT AVBL
ARBOR VITAE    CLOUDY    29  26  88 W12G17    29.62R WCI  20
WOODRUFF       CLOUDY    29  26  88 W12G17    29.62R WCI  20
RHINELANDER    LGT SNOW  30  27  88 W12       29.65R FOG     WCI  20
EAGLE RIVER    FLURRIES  28  24  86 W10G18    29.62R WCI  19
LAND O LAKES   LGT SNOW  28  26  93 W8        29.62R WCI  19
PHILLIPS       CLOUDY    28  26  94 W6        29.65R WCI  21
TOMAHAWK       CLOUDY    28  25  88 W6        29.66R WCI  22
MEDFORD        MIX PCPN  30  28  91 W6        29.67R WCI  24
MERRILL        CLOUDY    31  29  96 W7        29.68R FOG     WCI  24
$$

WIZ029-030-035-036-043>047-280400-
CENTRAL WISCONSIN

CITY           SKY/WX    TMP DP  RH WIND       PRES   REMARKS
WAUSAU         MIX PCPN  32  30  92 W10       29.68R WCI  24
MOSINEE        CLOUDY    32  30  93 W7        29.70R FOG     WCI  26
MARSHFIELD     CLOUDY    32  29  88 W9        29.69R WCI  24
STEVENS POINT  CLOUDY    32  31  94 W10       29.70R WCI  24
WAUPACA        CLOUDY    39  34  80 W9        29.71R WCI  33
WAUTOMA        LGT RAIN  37  34  89 W12       29.73R WCI  29
WISC RAPIDS    LGT RAIN  35  33  92 W7        29.72R WCI  29
CAMP DOUGLAS   CLOUDY    36  32  87 SW12      29.73R WCI  27
$$

WIZ011>013-019>022-031-037>040-048>050-280400-
NORTHEAST WISCONSIN

CITY           SKY/WX    TMP DP  RH WIND       PRES   REMARKS
ANTIGO         CLOUDY    30  28  94 W9        29.66R WCI  22
SHAWANO        CLOUDY    37  32  79 W9        29.69R WCI  31
OCONTO         NOT AVBL
STURGEON BAY   CLOUDY    39  33  79 W12       29.70R WCI  32
GREEN BAY      CLOUDY    40  36  86 W9        29.70R WCI  34
MANITOWOC      NOT AVBL
APPLETON       CLOUDY    37  32  81 W14       29.69R WCI  29
CLINTONVILLE   CLOUDY    36  32  87 W10G16    29.69R WCI  28
OSHKOSH        CLOUDY    40  33  76 W13G20    29.71R WCI  32
$$

WIZ032>034-041-042-053>061-280400-
SOUTHWEST WISCONSIN

CITY           SKY/WX    TMP DP  RH WIND       PRES   REMARKS
LA CROSSE      CLOUDY    38  29  70 W17       29.77R WCI  28
SPARTA         CLOUDY    36  31  83 W9        29.75R WCI  29
VIROQUA        CLOUDY    35  31  85 W15G22    29.74R WCI  26
BOSCOBEL       CLOUDY    41  31  67 W9        29.80R
PRAIRIE DU CHI CLOUDY    40  30  67 W10       29.80R WCI  33
PLATTEVILLE    CLOUDY    39  33  78 W8        29.80R WCI  33
$$

WIZ056-057-062-063-064-067-068-280400-
SOUTH CENTRAL WISCONSIN

CITY           SKY/WX    TMP DP  RH WIND       PRES   REMARKS
REEDSBURG      NOT AVBL
BARABOO/DELLS  CLOUDY    38  31  77 SW13G18   29.74R WCI  30
LONE ROCK      NOT AVBL
MINERAL POINT  CLOUDY    37  32  81 W16       29.78R WCI  28
MADISON        CLOUDY    39  30  70 W8G17     29.77R WCI  33
MIDDLETON      CLOUDY    40  32  73 W15G21    29.77R WCI  32
WATERTOWN      CLOUDY    40  34  79 SW9G16    29.75R WCI  34
MONROE         CLOUDY    39  32  75 W15       29.78R WCI  31
JANESVILLE     CLOUDY    41  34  75 W10       29.78R
$$

WIZ051-052-058>065-066-070>072-280400-
SOUTHEAST WISCONSIN

CITY           SKY/WX    TMP DP  RH WIND       PRES   REMARKS
MILWAUKEE      CLOUDY    44  32  62 W12       29.77R
WAUKESHA       NOT AVBL
MILWAUKEE/TIMM CLOUDY    41  32  70 SW12G17   29.76R
RACINE         CLOUDY    43  32  65 W13       29.80R
KENOSHA        CLOUDY    43  34  70 W9        29.79R
FOND DU LAC    CLOUDY    41  32  70 SW14      29.73R
SHEBOYGAN      LGT RAIN  41  37  86 W15       29.72R
WEST BEND      CLOUDY    39  36  87 W10       29.73R WCI  32
JUNEAU         CLOUDY    38  34  83 SW12      29.75R WCI  31
$$

LSZ147-162-280400-
LAKE SUPERIOR

STATION/POSITION TIME  TEMP    WIND        PRES    WAVE
                       AIR SEA DIR/SP/G            HT/PER
                 (UTC) (F)     (DEG/KT/KT) (MB)    (FT/S)
DEVILS ISLAND    0200   31     270/ 17/ 19 1003.6R
PORT WING        0240   33     270/ 15/ 19 1004.4R
SAXON HARBOR     0230   30     210/  8/ 10 1004.4R
$$

LMZ867-665-643>646-280400-
LAKE MICHIGAN

STATION/POSITION TIME  TEMP    WIND        PRES    WAVE
                       AIR SEA DIR/SP/G            HT/PER
                 (UTC) (F)     (DEG/KT/KT) (MB)    (FT/S)
CHAMBERS ISLAND  0240   38     210/  4/ 11 1004.7R
N MID LAKE BUOY  0150   38 37  220/ 14/ 17 1005.1R   4/ 6
NORTHPORT PIER   0240   38      CALM  /  3 1005.1R
KEWAUNEE LAKESHO 0230   41     240/  6/  8 1005.2R
SHEBOYGAN LAKESH 0200   43     240/  9/ 10 1006.0R
PORT WASHINGTON  0230   43     240/  9/ 14 1008.1R
MILWAUKEE LAKESH 0230   43     250/ 16/ 19   N/A
S MID LAKE BUOY  0150   43 41  270/ 16/ 19 1008.5R   3/ 5
KENOSHA   LAKESH 0200   44     240/ 11/ 21 1008.5
$$

TC  - TEMPERATURE IN CELSIUS
VSB - VISIBILITY IN STATUTE MILES
WCI - WIND CHILL INDEX
HX  - HEAT INDEX





USA.gov is the U.S. government's official web portal to all federal, state and local government web resources and services.